Location: Washington
(38.8950°N, 77.0370°W)
Time: 22:04:53
(UTC-04:00)

Amateur Radio Satellites - All Passes

Search period start: 16 October 2017 21:34
Search period end: 17 October 2017 21:34
Location: Washington, 38.8950°N, 77.0370°W

Satellite Date Start Highest point End Downlink Frequencies (MHz)
Time Altitude Azimuth
STRAND 1 16 Oct 21:39:02 21:43:25 28° 292° (WNW) 21:47:46 437.568
ZACube-1 16 Oct 21:41:05 21:44:31 21° 267° (W) 21:48:00 437.345
O/OREOS (USA 219) 16 Oct 21:57:28 22:02:00 84° 110° (ESE) 22:06:37 437.305
YUBILEINY 16 Oct 21:58:03 22:06:51 79° 266° (W) 22:15:39 435.215
DELFI C3 16 Oct 22:15:03 22:18:52 56° 259° (W) 22:22:44 145.870
BEESAT 2 16 Oct 22:24:41 22:27:34 18° 47° (NE) 22:30:25 435.950
EO-88 16 Oct 22:27:48 22:31:27 76° 259° (WSW) 22:35:07 145.990 - 145.960
Max Valier Satellite 16 Oct 22:27:54 22:31:33 52° 260° (W) 22:35:14 145.860
UNISAT 6 16 Oct 22:34:21 22:38:45 41° 98° (E) 22:43:01 437.425
TIGRISAT 16 Oct 22:50:14 22:54:49 56° 100° (E) 22:59:16 435.000
BEESAT 3 16 Oct 22:50:52 22:54:49 74° 241° (WSW) 22:58:41 437.485
FO-29 16 Oct 22:56:26 23:02:47 47° 290° (WNW) 23:09:48 435.910
AO-85 16 Oct 23:00:14 23:04:23 34° 53° (NE) 23:08:48 145.980
PRISM 16 Oct 23:21:08 23:25:12 56° 101° (E) 23:29:15 437.425
AIST 2D 16 Oct 23:21:11 23:21:54 10° 92° (E) 23:22:36 435.315
LO-87 16 Oct 23:30:55 23:34:29 77° 77° (ENE) 23:38:05 145.935 - 145.965
O/OREOS (USA 219) 16 Oct 23:41:02 23:42:04 11° 308° (NW) 23:43:06 437.305
SPROUT 16 Oct 23:44:05 23:46:50 17° 66° (ENE) 23:49:36 437.525
ESTCUBE 1 16 Oct 23:47:20 23:51:50 80° 76° (ENE) 23:56:21 437.505/2401.250
VELOX 1 16 Oct 23:57:05 23:59:54 17° 65° (ENE) 00:02:44 145.980
YUBILEINY 16 Oct 23:58:16 00:02:06 14° 284° (WNW) 00:05:58 435.215
BEESAT 2 17 Oct 00:01:40 00:05:28 41° 244° (WSW) 00:09:13 435.950
UNISAT 6 17 Oct 00:11:51 00:15:06 19° 294° (WNW) 00:18:18 437.425
EO-79 17 Oct 00:22:47 00:26:20 25° 95° (E) 00:29:49 145.935-145.965
POLYITAN 1 17 Oct 00:26:14 00:29:53 27° 96° (E) 00:33:30 437.675
TIGRISAT 17 Oct 00:28:29 00:30:58 14° 296° (WNW) 00:33:25 435.000
AO-85 17 Oct 00:40:44 00:44:42 28° 247° (WSW) 00:48:54 145.980
QB50P2 17 Oct 00:45:47 00:49:58 51° 100° (E) 00:54:06 145.880/145.840
AIST 2D 17 Oct 00:52:00 00:55:14 37° 286° (WNW) 00:58:27 435.315
NANOSAT C BR1 17 Oct 00:53:20 00:57:30 49° 100° (E) 01:01:35 145.865
PRISM 17 Oct 00:58:30 00:59:57 12° 296° (WNW) 01:01:26 437.425
DUCHIFAT 1 17 Oct 01:06:24 01:10:38 62° 101° (ESE) 01:14:47 145.980
RS-15 17 Oct 01:07:42 01:19:19 52° 110° (ESE) 01:31:00 29.354- 29.394
50 SAT 17 Oct 01:13:15 01:16:03 27° 72° (ENE) 01:18:51 437.505
DX 1 17 Oct 01:15:22 01:19:06 29° 69° (ENE) 01:22:51 434.975-435.025
SPROUT 17 Oct 01:18:22 01:22:23 40° 262° (W) 01:26:26 437.525
BUGSAT 1 17 Oct 01:30:47 01:34:28 28° 96° (E) 01:38:04 437.445
VELOX 1 17 Oct 01:31:51 01:35:59 42° 261° (W) 01:40:10 145.980
Oscar 19 17 Oct 01:34:55 01:38:06 16° 92° (E) 01:41:17 437.125/150
Gurwin Techsat 1B 17 Oct 01:35:31 01:36:57 11° 89° (E) 01:38:21 435.225
UKube-1 17 Oct 01:47:38 01:51:40 42° 72° (ENE) 01:55:44 .
EO-79 17 Oct 01:58:27 02:01:59 26° 291° (WNW) 02:05:30 145.935-145.965
POLYITAN 1 17 Oct 02:02:06 02:05:31 24° 292° (WNW) 02:08:55 437.675
QB50P2 17 Oct 02:23:11 02:25:17 14° 295° (WNW) 02:27:22 145.880/145.840
NANOSAT C BR1 17 Oct 02:30:34 02:32:44 14° 295° (WNW) 02:34:53 145.865
DUCHIFAT 1 17 Oct 02:44:23 02:45:42 11° 297° (WNW) 02:47:02 145.980
50 SAT 17 Oct 02:46:52 02:48:25 13° 267° (W) 02:49:58 437.505
DX 1 17 Oct 02:51:52 02:55:15 22° 265° (W) 02:58:41 434.975-435.025
M-CUBED/EXP-1 PRIME 17 Oct 02:54:10 02:57:40 89° 281° (W) 03:01:24 437.505
ITUPSAT 1 17 Oct 02:55:33 02:59:41 30° 68° (ENE) 03:03:51 437.325
MOZHAYETS 4 17 Oct 03:03:56 03:08:13 38° 71° (ENE) 03:12:30
BUGSAT 1 17 Oct 03:06:19 03:09:38 23° 292° (WNW) 03:12:57 437.445
Gurwin Techsat 1B 17 Oct 03:12:07 03:17:28 82° 285° (WNW) 03:22:47 435.225
Oscar 19 17 Oct 03:12:44 03:17:44 54° 288° (WNW) 03:22:41 437.125/150
BEESAT 17 Oct 03:13:19 03:17:52 45° 71° (ENE) 03:22:26 436.000
RS-15 17 Oct 03:20:02 03:31:54 51° 312° (NW) 03:43:47 29.354- 29.394
UKube-1 17 Oct 03:25:18 03:27:51 15° 267° (W) 03:30:26 .
ITAMSAT 1 17 Oct 03:38:14 03:41:11 15° 92° (E) 03:44:08 435.822/435.867
NO-84 17 Oct 03:44:07 03:47:14 20° 124° (SE) 03:50:20 435.350 FM
AO-7 17 Oct 04:20:28 04:28:33 53° 102° (ESE) 04:36:35 .
ITUPSAT 1 17 Oct 04:33:21 04:37:26 27° 264° (W) 04:41:33 437.325
CUBESAT XI-V 17 Oct 04:41:14 04:45:53 88° 78° (ENE) 04:50:32 437.345
MOZHAYETS 4 17 Oct 04:42:05 04:45:28 20° 267° (W) 04:48:51
BEESAT 17 Oct 04:52:39 04:55:50 18° 267° (W) 04:59:01 436.000
Gurwin Techsat 1B 17 Oct 04:55:42 04:56:32 10° 302° (WNW) 04:57:21 435.225
KKS-1 17 Oct 04:59:35 05:03:43 40° 71° (ENE) 05:07:53 437.445
ITAMSAT 1 17 Oct 05:15:52 05:21:02 61° 287° (WNW) 05:26:10 435.822/435.867
NO-84 17 Oct 05:20:08 05:24:22 55° 319° (NW) 05:28:30 435.350 FM
RS-15 17 Oct 05:39:37 05:48:24 21° 343° (NNW) 05:57:04 29.354- 29.394
STARS 17 Oct 05:43:20 05:47:32 48° 72° (ENE) 05:51:47 437.465
DOVE 4 17 Oct 05:58:31 06:03:19 50° 100° (E) 06:08:18 437.250
AO-7 17 Oct 06:13:44 06:20:58 35° 300° (WNW) 06:28:12 .
O/OREOS (USA 219) 17 Oct 06:31:06 06:33:30 14° 54° (NE) 06:35:53 437.305
KKS-1 17 Oct 06:37:33 06:40:26 17° 267° (W) 06:43:19 437.445
LilacSat-2 17 Oct 06:46:57 06:50:28 36° 98° (E) 06:53:56 437.200
XW-2F 17 Oct 06:50:04 06:53:29 34° 97° (E) 06:56:52 145.980 - 146.000
KAITUO 1B 17 Oct 06:55:04 06:58:20 30° 97° (E) 07:01:35 145.475/437.950
CUTE-I 17 Oct 06:57:25 07:02:25 38° 98° (E) 07:07:23 437.470
XW-2D 17 Oct 06:59:10 07:02:49 50° 99° (E) 07:06:27 145.860 - 145.880
NO-84 17 Oct 07:00:15 07:02:31 14° 337° (NNW) 07:04:45 435.350 FM
CUTE 1.7 + AOD 2 17 Oct 07:03:12 07:03:48 10° 90° (E) 07:04:24 437.475
XW-2B 17 Oct 07:12:25 07:16:10 74° 101° (ESE) 07:19:53 145.730 - 145.750
STRAND 1 17 Oct 07:14:15 07:19:01 41° 70° (ENE) 07:23:50 437.568
NUDT-PHONESAT 17 Oct 07:15:28 07:19:03 54° 100° (E) 07:22:37 437.300
STARS 17 Oct 07:21:51 07:24:08 14° 268° (W) 07:26:24 437.465
CUBEBUG 2 17 Oct 07:23:21 07:24:57 12° 89° (E) 07:26:31 437.445
XW-2C 17 Oct 07:35:32 07:39:10 52° 285° (WNW) 07:42:48 145.795 - 145.815
DOVE 4 17 Oct 07:37:14 07:40:37 19° 293° (WNW) 07:44:05 437.250
SO-50 17 Oct 07:50:53 07:55:12 50° 117° (ESE) 07:59:33 436.795
RS-15 17 Oct 07:58:17 08:07:13 22° 20° (NNE) 08:15:50 29.354- 29.394
HO-68 17 Oct 08:07:42 08:14:49 60° 102° (ESE) 08:21:54 435.675
UWE-3 17 Oct 08:07:55 08:11:16 20° 93° (E) 08:14:33 435.000/436.395/437.385
O/OREOS (USA 219) 17 Oct 08:08:48 08:13:22 63° 251° (WSW) 08:17:52 437.305
XW-2A 17 Oct 08:15:03 08:17:45 22° 96° (E) 08:20:25 145.665 - 145.685
LilacSat-2 17 Oct 08:22:24 08:24:24 14° 293° (WNW) 08:26:24 437.200
XW-2F 17 Oct 08:25:13 08:27:17 14° 293° (WNW) 08:29:21 145.980 - 146.000
KAITUO 1B 17 Oct 08:29:46 08:32:03 16° 292° (WNW) 08:34:20 145.475/437.950
CUTE 1.7 + AOD 2 17 Oct 08:35:51 08:39:59 59° 285° (WNW) 08:44:06 437.475
XW-2D 17 Oct 08:35:56 08:36:31 10° 295° (WNW) 08:37:05 145.860 - 145.880
CUTE-I 17 Oct 08:37:51 08:42:14 26° 294° (WNW) 08:46:38 437.470
Oscar 11 17 Oct 08:38:38 08:40:37 13° 91° (E) 08:42:37 .
SEEDS 17 Oct 08:50:18 08:54:26 66° 284° (WNW) 08:58:33 437.485
STRAND 1 17 Oct 08:54:25 08:58:20 22° 266° (W) 09:02:16 437.568
PCSat 17 Oct 08:55:00 08:59:56 37° 110° (ESE) 09:04:53 145.827
CUBEBUG 2 17 Oct 08:57:21 09:01:59 64° 286° (WNW) 09:06:29 437.445
YUBILEINY 17 Oct 09:03:08 09:09:39 25° 81° (E) 09:16:12 435.215
FO-29 17 Oct 09:08:07 09:13:15 71° 74° (ENE) 09:18:39 435.910
AO-73 17 Oct 09:09:44 09:13:56 44° 98° (E) 09:18:01 145.935
AAUSAT CUBESAT 2 17 Oct 09:25:37 09:29:40 60° 285° (WNW) 09:33:43 437.432
ZACube-1 17 Oct 09:29:20 09:33:47 87° 108° (ESE) 09:38:04 437.345
Tancredo 1 17 Oct 09:29:54 09:31:37 32° 138° (SE) 09:33:23 437.200
UNISAT 6 17 Oct 09:31:39 09:35:42 31° 69° (ENE) 09:39:49 437.425
SO-50 17 Oct 09:32:40 09:35:55 19° 314° (NW) 09:39:11 436.795
JUGNU 17 Oct 09:33:01 09:34:27 11° 178° (S) 09:35:52 437.505
UWE-3 17 Oct 09:43:40 09:47:48 34° 289° (WNW) 09:51:47 435.000/436.395/437.385
TIGRISAT 17 Oct 09:47:10 09:51:29 41° 72° (ENE) 09:55:54 435.000
XW-2A 17 Oct 09:48:05 09:50:16 16° 291° (WNW) 09:52:26 145.665 - 145.685
DELFI C3 17 Oct 09:53:39 09:56:27 18° 94° (E) 09:59:14 145.870
HO-68 17 Oct 09:56:18 10:02:02 26° 299° (WNW) 10:07:45 435.675
Max Valier Satellite 17 Oct 10:00:06 10:02:09 14° 93° (E) 10:04:12 145.860
PRISM 17 Oct 10:09:07 10:12:43 32° 71° (ENE) 10:16:21 437.425
RS-15 17 Oct 10:11:26 10:23:12 57° 50° (NE) 10:34:17 29.354- 29.394
Oscar 11 17 Oct 10:12:52 10:17:01 49° 286° (WNW) 10:21:09 .
NO-84 17 Oct 10:18:51 10:20:31 12° 20° (NNE) 10:22:08 435.350 FM
ISS 17 Oct 10:25:15 10:26:09 11° 128° (SE) 10:27:02 437.550
PCSat 17 Oct 10:38:35 10:43:20 31° 308° (NW) 10:48:07 145.827
AO-73 17 Oct 10:47:08 10:49:44 16° 295° (WNW) 10:52:18 145.935
YUBILEINY 17 Oct 10:57:02 11:05:38 66° 280° (W) 11:14:19 435.215
FO-29 17 Oct 10:57:22 10:59:03 11° 272° (W) 11:00:46 435.910
Tancredo 1 17 Oct 11:03:17 11:03:39 10° 334° (NNW) 11:04:01 437.200
UNISAT 6 17 Oct 11:08:38 11:12:22 24° 266° (W) 11:16:11 437.425
EO-79 17 Oct 11:14:34 11:17:16 17° 66° (ENE) 11:20:01 145.935-145.965
POLYITAN 1 17 Oct 11:17:59 11:20:55 18° 67° (ENE) 11:23:53 437.675
AIST 2D 17 Oct 11:24:15 11:27:41 53° 75° (ENE) 11:31:08 435.315
TIGRISAT 17 Oct 11:25:10 11:28:19 18° 268° (W) 11:31:32 435.000
DELFI C3 17 Oct 11:27:45 11:31:12 29° 289° (WNW) 11:34:38 145.870
EO-88 17 Oct 11:31:03 11:34:33 46° 286° (WNW) 11:38:00 145.990 - 145.960
Max Valier Satellite 17 Oct 11:32:46 11:36:04 31° 288° (WNW) 11:39:20 145.860
nSIGHT-1 17 Oct 11:35:09 11:38:20 76° 139° (SE) 11:41:32 .
QB50P2 17 Oct 11:36:59 11:40:46 32° 71° (ENE) 11:44:36 145.880/145.840
ESTCUBE 1 17 Oct 11:41:57 11:45:01 18° 93° (E) 11:48:03 437.505/2401.250
NANOSAT C BR1 17 Oct 11:44:02 11:47:46 31° 70° (ENE) 11:51:31 145.865
PRISM 17 Oct 11:45:19 11:48:03 18° 266° (W) 11:50:48 437.425
SRMSAT 17 Oct 11:49:36 11:50:48 11° 174° (S) 11:52:00 437.500
NO-84 17 Oct 11:55:04 11:58:42 54° 40° (NE) 12:02:01 435.350 FM
DUCHIFAT 1 17 Oct 11:56:38 12:00:31 37° 72° (ENE) 12:04:28 145.980
ISS 17 Oct 11:58:57 12:02:11 70° 323° (NW) 12:05:26 437.550
BUGSAT 1 17 Oct 12:19:47 12:22:33 17° 66° (ENE) 12:25:21 437.445
RS-15 17 Oct 12:24:33 12:35:13 43° 253° (WSW) 12:45:24 29.354- 29.394
LO-87 17 Oct 12:32:01 12:35:38 69° 284° (WNW) 12:39:13 145.935 - 145.965
BEESAT 3 17 Oct 12:39:24 12:42:35 23° 112° (ESE) 12:45:48 437.485
EO-79 17 Oct 12:48:41 12:52:41 40° 262° (W) 12:56:44 145.935-145.965
Oscar 19 17 Oct 12:50:20 12:54:18 23° 65° (ENE) 12:58:16 437.125/150
POLYITAN 1 17 Oct 12:52:28 12:56:24 36° 262° (W) 13:00:24 437.675
Gurwin Techsat 1B 17 Oct 12:54:22 12:57:49 18° 63° (ENE) 13:01:17 435.225
YUBILEINY 17 Oct 13:01:33 13:04:19 12° 302° (WNW) 13:07:05 435.215
SPROUT 17 Oct 13:04:56 13:08:54 35° 98° (E) 13:12:48 437.525
nSIGHT-1 17 Oct 13:12:44 13:14:56 17° 337° (NNW) 13:17:08 .
QB50P2 17 Oct 13:13:28 13:16:35 20° 266° (W) 13:19:44 145.880/145.840
AO-85 17 Oct 13:17:15 13:17:52 10° 108° (ESE) 13:18:28 145.980
ESTCUBE 1 17 Oct 13:17:47 13:21:56 39° 289° (WNW) 13:26:04 437.505/2401.250
NANOSAT C BR1 17 Oct 13:20:18 13:23:28 20° 266° (W) 13:26:41 145.865
VELOX 1 17 Oct 13:22:42 13:26:50 37° 98° (E) 13:30:57 145.980
AO-7 17 Oct 13:31:04 13:34:49 14° 47° (NE) 13:38:33 .
DUCHIFAT 1 17 Oct 13:33:32 13:36:18 17° 267° (W) 13:39:05 145.980
NO-84 17 Oct 13:34:01 13:35:33 12° 239° (WSW) 13:37:01 435.350 FM
ISS 17 Oct 13:37:14 13:39:09 15° 341° (NNW) 13:41:04 437.550
SRMSAT 17 Oct 13:37:32 13:39:01 11° 185° (S) 13:40:31 437.500
M-CUBED/EXP-1 PRIME 17 Oct 13:39:02 13:42:33 88° 253° (WSW) 13:45:54 437.505
BEESAT 2 17 Oct 13:51:00 13:54:45 42° 116° (ESE) 13:58:35 435.950
BUGSAT 1 17 Oct 13:53:44 13:57:35 37° 262° (W) 14:01:31 437.445
50 SAT 17 Oct 14:05:13 14:08:09 28° 98° (E) 14:11:03 437.505
BEESAT 3 17 Oct 14:16:28 14:19:59 29° 308° (NW) 14:23:33 437.485
Oscar 19 17 Oct 14:28:27 14:33:19 42° 261° (W) 14:38:13 437.125/150
Gurwin Techsat 1B 17 Oct 14:32:03 14:37:15 58° 259° (W) 14:42:31 435.225
DX 1 17 Oct 14:39:53 14:44:14 65° 102° (ESE) 14:48:34 434.975-435.025
SPROUT 17 Oct 14:41:28 14:44:30 19° 293° (WNW) 14:47:32 437.525
AO-85 17 Oct 14:53:52 14:57:40 55° 304° (NW) 15:01:34 145.980
ITAMSAT 1 17 Oct 14:54:42 14:58:35 22° 65° (ENE) 15:02:29 435.822/435.867
VELOX 1 17 Oct 14:59:51 15:02:59 19° 294° (WNW) 15:06:07 145.980
UKube-1 17 Oct 15:11:11 15:15:32 88° 279° (W) 15:19:50 .
BEESAT 17 Oct 15:16:34 15:18:30 12° 91° (E) 15:20:27 436.000
AO-7 17 Oct 15:17:49 15:25:59 64° 67° (ENE) 15:34:09 .
BEESAT 2 17 Oct 15:29:49 15:32:40 18° 313° (NW) 15:35:33 435.950
50 SAT 17 Oct 15:38:33 15:40:11 13° 292° (WNW) 15:41:48 437.505
Tancredo 1 17 Oct 15:40:24 15:41:37 15° 30° (NNE) 15:42:51 437.200
DX 1 17 Oct 16:18:22 16:19:51 12° 297° (WNW) 16:21:18 434.975-435.025
SO-50 17 Oct 16:23:06 16:27:18 33° 51° (NE) 16:31:31 436.795
nSIGHT-1 17 Oct 16:28:04 16:29:44 13° 18° (NNE) 16:31:25 .
ITAMSAT 1 17 Oct 16:32:47 16:37:42 44° 260° (W) 16:42:42 435.822/435.867
ITUPSAT 1 17 Oct 16:34:02 16:38:52 82° 103° (ESE) 16:43:38 437.325
MOZHAYETS 4 17 Oct 16:36:40 16:41:17 77° 283° (WNW) 16:45:49
CUBESAT XI-V 17 Oct 16:39:31 16:43:11 23° 95° (E) 16:46:51 437.345
BEESAT 17 Oct 16:51:56 16:56:40 64° 286° (WNW) 17:01:22 436.000
ISS 17 Oct 16:52:10 16:54:22 17° 22° (NNE) 16:56:34 437.550
DOVE 4 17 Oct 17:03:21 17:07:10 37° 72° (ENE) 17:11:06 437.250
Tancredo 1 17 Oct 17:12:06 17:13:13 14° 226° (SW) 17:14:18 437.200
AO-7 17 Oct 17:12:32 17:19:11 26° 265° (W) 17:25:54 .
LilacSat-2 17 Oct 17:28:25 17:30:50 16° 68° (ENE) 17:33:16 437.200
XW-2F 17 Oct 17:30:38 17:32:47 15° 67° (ENE) 17:34:57 145.980 - 146.000
KAITUO 1B 17 Oct 17:35:07 17:36:49 13° 67° (ENE) 17:38:31 145.475/437.950
XW-2D 17 Oct 17:39:30 17:42:23 21° 70° (ENE) 17:45:16 145.860 - 145.880
PCSat 17 Oct 17:44:03 17:48:30 25° 50° (NE) 17:52:55 145.827
XW-2B 17 Oct 17:52:22 17:55:39 28° 72° (ENE) 17:58:57 145.730 - 145.750
NUDT-PHONESAT 17 Oct 17:53:38 17:56:26 20° 70° (ENE) 17:59:14 437.300
nSIGHT-1 17 Oct 18:03:22 18:06:33 60° 36° (NE) 18:09:43 .
SO-50 17 Oct 18:03:45 18:07:38 27° 247° (WSW) 18:11:33 436.795
ITUPSAT 1 17 Oct 18:14:45 18:15:57 11° 300° (WNW) 18:17:10 437.325
XW-2C 17 Oct 18:14:54 18:18:38 56° 75° (ENE) 18:22:22 145.795 - 145.815
CUBESAT XI-V 17 Oct 18:16:30 18:20:33 31° 290° (WNW) 18:24:36 437.345
CUTE-I 17 Oct 18:17:53 18:23:03 55° 72° (ENE) 18:28:16 437.470
KKS-1 17 Oct 18:27:35 18:32:05 83° 286° (WNW) 18:36:34 437.445
ISS 17 Oct 18:27:57 18:31:13 87° 225° (SW) 18:34:29 437.550
HO-68 17 Oct 18:35:03 18:41:32 39° 65° (ENE) 18:48:05 435.675
DOVE 4 17 Oct 18:42:31 18:45:03 16° 268° (W) 18:47:38 437.250
LilacSat-2 17 Oct 19:01:22 19:04:50 32° 263° (W) 19:08:18 437.200
XW-2F 17 Oct 19:03:06 19:06:35 35° 262° (W) 19:10:05 145.980 - 146.000
UWE-3 17 Oct 19:04:00 19:06:46 16° 65° (ENE) 19:09:32 435.000/436.395/437.385
KAITUO 1B 17 Oct 19:06:53 19:10:25 40° 261° (W) 19:13:58 145.475/437.950
STARS 17 Oct 19:09:40 19:14:06 72° 286° (WNW) 19:18:31 437.465
XW-2D 17 Oct 19:13:17 19:16:25 24° 264° (W) 19:19:33 145.860 - 145.880
YUBILEINY 17 Oct 19:17:58 19:18:21 10° 57° (ENE) 19:18:44 435.215
CUTE 1.7 + AOD 2 17 Oct 19:26:35 19:30:49 80° 75° (ENE) 19:35:03 437.475
PCSat 17 Oct 19:26:55 19:32:07 47° 248° (WSW) 19:37:16 145.827
NUDT-PHONESAT 17 Oct 19:27:07 19:30:08 23° 264° (W) 19:33:11 437.300
STRAND 1 17 Oct 19:27:12 19:30:12 15° 92° (E) 19:33:10 437.568
XW-2B 17 Oct 19:27:14 19:29:50 17° 266° (W) 19:32:27 145.730 - 145.750
SEEDS 17 Oct 19:40:06 19:44:15 68° 76° (ENE) 19:48:24 437.485
nSIGHT-1 17 Oct 19:41:02 19:42:28 12° 231° (SW) 19:43:52 .
CUBEBUG 2 17 Oct 19:53:12 19:57:49 89° 77° (ENE) 20:02:34 437.445
CUTE-I 17 Oct 20:00:01 20:03:25 17° 268° (W) 20:06:51 437.470
AO-73 17 Oct 20:03:30 20:07:30 31° 70° (ENE) 20:11:31 145.935
AAUSAT CUBESAT 2 17 Oct 20:13:49 20:17:54 72° 76° (ENE) 20:21:59 437.432
XW-2A 17 Oct 20:16:20 20:19:44 65° 259° (W) 20:23:09 145.665 - 145.685
FO-29 17 Oct 20:20:00 20:22:14 12° 89° (E) 20:24:32 435.910
HO-68 17 Oct 20:22:38 20:29:12 39° 262° (W) 20:35:50 435.675
ZACube-1 17 Oct 20:23:00 20:27:29 57° 74° (ENE) 20:31:59 437.345
UWE-3 17 Oct 20:38:14 20:42:43 52° 261° (W) 20:47:18 435.000/436.395/437.385
O/OREOS (USA 219) 17 Oct 20:42:08 20:45:05 17° 100° (E) 20:48:05 437.305
BEESAT 3 17 Oct 20:58:00 20:59:29 12° 43° (NE) 21:00:56 437.485
STRAND 1 17 Oct 21:04:39 21:09:44 59° 287° (WNW) 21:14:46 437.568
Oscar 11 17 Oct 21:05:41 21:10:01 79° 258° (WSW) 21:14:23 .
YUBILEINY 17 Oct 21:08:34 21:17:15 60° 79° (ENE) 21:25:55 435.215
